Погода в Перми

Россия / Пермский край     58°00′37″N   56°13′45″E
темп.,
°C
ветер,
м/с
пор.,
м/с
влажн.,
%
обл.,
%
осадки,
мм/ч
давл.,
гПа
погр.,
м
20 января, ср
ср2023:00−10вюв31094100 0.3 1014598
02:00−11юв3994100 0.5 1013445
05:00−11юв2696100 0.9 1012264
08:00−12юв2496100 0.3 1011138
11:00−12ю2496100 0.6 1011195
14:00−13зюз2492100 0.2 1011328
17:00−15юз3594100 0.3 1011335
20:00−17юз3896100 0.1 1012347
21 января, чт
чт2123:00−19юз379699 0.3 1013297
02:00−20юз3897100 0.1 1013236
05:00−19юз3896100 0.2 1014354
08:00−19зюз3796100 0.1 1013324
11:00−19зюз3895100 0.3 1014342
14:00−17юз3792100 0.1 1013413
17:00−17зюз3795100 0.2 1012425
20:00−17зюз3796100 0.1 1012354
22 января, пт
пт2223:00−17з2697100 0.3 1013251
02:00−19з2298100 0.1 101362
05:00−20з229999 0.2 101337
08:00−22зсз119993 0.1 101420
11:00−22з119895 0.1 101666
14:00−20зсз129293 0.1 1017269
17:00−21сз119797 0.1 101921
20:00−24ссв129881 0.0 102120
23 января, сб
сб2323:00−25в249781 0.0 102492
02:00−27вюв379358 0.0 1026194
05:00−27вюв389179 0.0 1027265
08:00−26вюв4991100 0.0 1028320
11:00−25вюв4992100 0.0 1027315
14:00−22вюв51097100 0.6 1025333
17:00−20вюв51097100 2.1 1022398
20:00−17вюв41096100 1.1 1021444
24 января, вс
вс2423:00−17вюв5994100 1.8 1020378
02:00−19вюв4895100 0.3 1020308
05:00−19вюв5995100 0.5 1020307
08:00−20вюв51095100 0.1 1020307
11:00−20вюв5997100 1.4 1020306
14:00−18вюв4796100 1.4 1019255
17:00−16в3695100 1.8 1019203
20:00−15в359699 0.4 1021136